FW6610 Weather Reports


time (UTC)temp
C
wind
direction
speed
KPH
gust
KPH
rain 1hr
cm
rain 24hr
cm
rain mn
cm
humidity
%
barometer
mb
20260504035531 5 0 0.0 0.0 0.00 0.00 0.00 68 1011.3
20260504035029 5 0 0.0 0.0 0.00 0.00 0.00 68 1011.4
20260504034544 5 0 0.0 0.0 0.00 0.00 0.00 68 1011.4
20260504034028 5 0 0.0 0.0 0.00 0.00 0.00 68 1011.3
20260504033528 5 0 0.0 1.6 0.00 0.00 0.00 69 1011.2
20260504033037 5 0 0.0 1.6 0.00 0.00 0.00 70 1011.2
20260504032528 5 0 0.0 1.6 0.00 0.00 0.00 68 1011.2
20260504032030 5 210 0.0 1.6 0.00 0.00 0.00 68 1011.1
20260504031543 5 208 0.0 1.6 0.00 0.00 0.00 69 1011.1
20260504031030 5 208 0.0 1.6 0.00 0.00 0.00 68 1011.2
20260504030530 4 208 0.0 1.6 0.00 0.00 0.00 67 1011.2
20260504030041 5 216 0.0 1.6 0.00 0.00 0.00 68 1011.2
20260504025529 4 214 0.0 1.6 0.00 0.00 0.00 66 1011.2
20260504025029 4 207 0.0 1.6 0.00 0.00 0.00 66 1011.0
20260504024546 5 219 0.0 1.6 0.00 0.00 0.00 65 1011.2
20260504024030 5 219 0.0 1.6 0.00 0.00 0.00 65 1011.3
20260504023531 5 214 0.0 3.2 0.00 0.00 0.00 66 1011.2
20260504023046 5 214 1.6 3.2 0.00 0.00 0.00 62 1011.2
20260504022529 5 214 0.0 3.2 0.00 0.00 0.00 64 1011.3
20260504022030 5 204 0.0 3.2 0.00 0.00 0.00 63 1011.3
20260504021541 5 0 0.0 3.2 0.00 0.00 0.00 62 1011.1
20260504021028 5 213 1.6 1.6 0.00 0.00 0.00 60 1011.1
20260504020528 5 210 1.6 1.6 0.00 0.00 0.00 59 1011.1
20260504020043 5 208 0.0 1.6 0.00 0.00 0.00 59 1011.1
20260504015529 5 205 0.0 1.6 0.00 0.00 0.00 59 1010.9
20260504015030 6 204 0.0 3.2 0.00 0.00 0.00 58 1010.8
20260504014541 6 0 1.6 8.0 0.00 0.00 0.00 56 1010.8
20260504014030 6 255 1.6 8.0 0.00 0.00 0.00 56 1010.7
20260504013529 6 0 0.0 1.6 0.00 0.00 0.00 57 1010.6
20260504013055 6 212 0.0 1.6 0.00 0.00 0.00 56 1010.5
20260504012529 6 0 0.0 3.2 0.00 0.00 0.00 61 1010.5
20260504012029 6 221 0.0 3.2 0.00 0.00 0.00 58 1010.5
20260504011536 6 205 0.0 3.2 0.00 0.00 0.00 57 1010.4
20260504011028 6 205 0.0 3.2 0.00 0.00 0.00 55 1010.3
20260504010528 6 221 0.0 1.6 0.00 0.00 0.00 54 1010.2
20260504010044 6 0 0.0 1.6 0.00 0.00 0.00 52 1010.2
20260504005529 6 202 0.0 1.6 0.00 0.00 0.00 53 1010.1
20260504005029 7 202 0.0 1.6 0.00 0.00 0.00 51 1010.1
20260504004545 7 202 0.0 1.6 0.00 0.00 0.00 51 1010.0
20260504004029 7 201 0.0 1.6 0.00 0.00 0.00 48 1009.9
20260504003530 7 199 0.0 1.6 0.00 0.00 0.00 49 1009.8
20260504003041 8 207 0.0 1.6 0.00 0.00 0.00 50 1009.7
20260504002529 8 0 0.0 1.6 0.00 0.00 0.00 45 1009.6
20260504002029 8 207 0.0 1.6 0.00 0.00 0.00 46 1009.5
20260504001547 9 236 0.0 1.6 0.00 0.00 0.00 40 1009.5
20260504001029 10 0 0.0 6.4 0.00 0.00 0.00 37 1009.5
20260504000530 10 0 0.0 6.4 0.00 0.00 0.00 37 1009.4
20260504000043 10 310 0.0 6.4 0.00 0.00 0.00 35 1009.4
20260503235529 10 314 1.6 6.4 0.00 0.00 0.00 36 1009.4
20260503235029 11 359 1.6 14.5 0.00 0.00 0.00 35 1009.4
20260503234537 11 334 3.2 14.5 0.00 0.00 0.00 35 1009.2
20260503234029 11 0 1.6 9.7 0.00 0.00 0.00 36 1009.4
20260503233528 11 278 3.2 12.9 0.00 0.00 0.00 34 1009.2
20260503233045 11 301 6.4 12.9 0.00 0.00 0.00 34 1009.1
20260503232528 11 328 1.6 8.0 0.00 0.00 0.00 35 1009.3
20260503232029 11 323 3.2 14.5 0.00 0.00 0.00 35 1009.2
20260503231537 11 319 1.6 14.5 0.00 0.00 0.00 36 1009.2
20260503231032 11 349 4.8 14.5 0.00 0.00 0.00 35 1009.0
20260503230530 11 340 6.4 14.5 0.00 0.00 0.00 39 1009.2
20260503230045 11 104 3.2 9.7 0.00 0.00 0.00 38 1009.1
20260503225529 11 252 3.2 19.3 0.00 0.00 0.00 36 1009.0
20260503225031 12 274 4.8 19.3 0.00 0.00 0.00 36 1009.1
20260503224541 12 335 4.8 14.5 0.00 0.00 0.00 35 1009.1
20260503224028 12 287 4.8 12.9 0.00 0.00 0.00 37 1009.0
20260503223529 12 328 3.2 14.5 0.00 0.00 0.00 38 1009.0
20260503223042 12 333 4.8 14.5 0.00 0.00 0.00 39 1009.2
20260503222528 12 349 3.2 11.3 0.00 0.00 0.00 38 1009.2
20260503222030 12 322 3.2 14.5 0.00 0.00 0.00 37 1009.1
20260503221536 12 61 3.2 17.7 0.00 0.00 0.00 38 1009.1
20260503221029 12 307 6.4 17.7 0.00 0.00 0.00 38 1009.1
20260503220529 12 328 6.4 29.0 0.00 0.00 0.00 37 1009.1
20260503220035 12 281 6.4 29.0 0.00 0.00 0.00 39 1009.1
20260503215529 12 352 6.4 22.5 0.00 0.00 0.00 38 1009.1
20260503215029 12 320 4.8 24.1 0.00 0.00 0.00 41 1009.0
20260503214545 12 350 9.7 24.1 0.00 0.00 0.00 39 1009.1
20260503214029 12 274 8.0 20.9 0.00 0.00 0.00 40 1009.3
20260503213528 11 18 8.0 22.5 0.00 0.00 0.00 39 1009.0
20260503213045 11 164 6.4 22.5 0.00 0.00 0.00 42 1009.2
20260503212528 11 11 9.7 24.1 0.00 0.00 0.00 41 1009.0
20260503212029 11 285 11.3 24.1 0.00 0.00 0.00 41 1009.2
20260503211540 12 286 9.7 24.1 0.00 0.00 0.00 41 1009.1
20260503211028 12 304 8.0 17.7 0.00 0.00 0.00 42 1009.1
20260503210528 12 304 4.8 19.3 0.00 0.00 0.00 40 1009.1
20260503210040 11 359 8.0 24.1 0.00 0.00 0.00 41 1009.1
20260503205529 11 332 12.9 24.1 0.00 0.00 0.00 43 1009.1
20260503205029 11 334 8.0 20.9 0.00 0.00 0.00 40 1008.9
20260503204544 11 303 6.4 25.7 0.00 0.00 0.00 41 1008.9
20260503204028 11 356 4.8 25.7 0.00 0.00 0.00 41 1009.0
20260503203533 11 319 11.3 19.3 0.00 0.00 0.00 40 1008.9
20260503203047 11 322 9.7 17.7 0.00 0.00 0.00 45 1008.8
20260503202529 11 317 8.0 24.1 0.00 0.00 0.00 43 1008.9
20260503202029 11 282 8.0 24.1 0.00 0.00 0.00 41 1008.8
20260503201546 11 309 9.7 24.1 0.00 0.00 0.00 42 1009.0
20260503201028 11 258 9.7 24.1 0.00 0.00 0.00 43 1009.0
20260503200528 11 1 8.0 19.3 0.00 0.00 0.00 42 1008.8
20260503200044 11 323 8.0 16.1 0.00 0.00 0.00 43 1009.0
20260503195528 11 28 6.4 27.4 0.00 0.00 0.00 43 1008.9
20260503195028 11 10 8.0 35.4 0.00 0.00 0.00 43 1008.9
20260503194545 11 319 11.3 35.4 0.00 0.00 0.00 42 1009.0
20260503194028 11 356 6.4 27.4 0.00 0.00 0.00 43 1009.1
20260503193528 11 278 11.3 19.3 0.00 0.00 0.00 42 1008.9
20260503193046 11 312 6.4 17.7 0.00 0.00 0.00 42 1009.0
20260503192529 11 6 6.4 17.7 0.00 0.00 0.00 42 1009.0
20260503192034 11 297 6.4 16.1 0.00 0.00 0.00 43 1009.0
20260503191604 11 304 9.7 17.7 0.00 0.00 0.00 42 1009.0
20260503191033 11 312 6.4 19.3 0.00 0.00 0.00 43 1009.1
20260503190534 11 295 6.4 24.1 0.00 0.00 0.00 47 1009.0
20260503190036 11 3 9.7 24.1 0.00 0.00 0.00 43 1009.0
20260503185530 11 235 3.2 19.3 0.00 0.00 0.00 46 1009.0
20260503185030 11 311 6.4 22.5 0.00 0.00 0.00 45 1008.9
20260503184545 10 342 6.4 22.5 0.00 0.00 0.00 46 1008.9
20260503184033 11 25 8.0 19.3 0.00 0.00 0.00 44 1008.9
20260503183534 11 344 9.7 19.3 0.00 0.00 0.00 42 1008.8
20260503183044 11 332 4.8 20.9 0.00 0.00 0.00 46 1008.8
20260503182534 10 312 6.4 20.9 0.00 0.00 0.00 44 1008.7
20260503182030 10 329 6.4 22.5 0.00 0.00 0.00 46 1008.8
20260503181548 10 250 8.0 22.5 0.00 0.00 0.00 45 1008.9
20260503181030 11 24 6.4 22.5 0.00 0.00 0.00 50 1008.9
20260503180530 10 337 6.4 22.5 0.00 0.00 0.00 48 1008.8
20260503180054 10 342 9.7 24.1 0.00 0.00 0.00 46 1009.1
20260503175535 10 312 11.3 24.1 0.00 0.00 0.00 46 1009.1
20260503175032 10 294 8.0 19.3 0.00 0.00 0.00 47 1009.0
20260503174546 11 319 9.7 22.5 0.00 0.00 0.00 46 1008.9
20260503174032 11 8 6.4 25.7 0.00 0.00 0.00 46 1008.7
20260503173532 11 332 9.7 37.0 0.00 0.00 0.00 47 1008.9
20260503173037 11 291 16.1 37.0 0.00 0.00 0.00 47 1008.8
20260503172530 11 318 14.5 32.2 0.00 0.00 0.00 45 1008.7
20260503172030 11 330 12.9 32.2 0.00 0.00 0.00 47 1008.7
20260503171549 11 324 12.9 25.7 0.00 0.00 0.00 43 1008.7
20260503171034 11 347 11.3 24.1 0.00 0.00 0.00 43 1008.7
20260503170531 11 287 12.9 25.7 0.00 0.00 0.00 44 1008.6
20260503150530 9 276 4.8 32.2 0.00 0.00 0.00 52 1008.9
20260503131029 7 317 11.3 24.1 0.00 0.00 0.00 63 1009.4
20260503130525 7 281 8.0 19.3 0.00 0.00 0.00 65 1009.3
20260503110528 5 307 6.4 24.1 0.00 0.08 0.00 69 1009.3
20260503081542 4 326 1.6 12.9 0.00 0.48 0.00 68 1010.0
20260503081031 4 342 1.6 9.7 0.00 0.48 0.00 68 1009.8
20260503080531 4 327 1.6 9.7 0.00 0.48 0.00 67 1009.9
20260503072529 5 342 0.0 8.0 0.00 0.51 0.00 68 1010.1
20260503072029 5 15 1.6 9.7 0.00 0.51 0.00 65 1010.0
20260503071539 5 296 3.2 9.7 0.00 0.51 0.00 65 1010.0
20260503071029 5 314 3.2 6.4 0.00 0.51 0.00 65 1009.9
20260503070530 5 321 1.6 6.4 0.00 0.51 0.00 66 1009.8
20260503055030 5 337 0.0 3.2 0.00 0.53 0.00 66 1011.3
20260503054558 4 316 0.0 3.2 0.00 0.53 0.00 67 1011.3
20260503054029 4 0 0.0 3.2 0.00 0.53 0.00 69 1011.4
20260503053530 4 334 0.0 3.2 0.00 0.53 0.00 67 1011.3
20260503053039 4 222 0.0 1.6 0.00 0.53 0.00 70 1011.4
20260503052530 4 0 0.0 1.6 0.00 0.53 0.00 69 1011.5
20260503052030 4 0 0.0 1.6 0.00 0.53 0.00 69 1011.5
20260503051538 5 222 0.0 1.6 0.00 0.53 0.00 68 1011.6
20260503051025 5 0 0.0 0.0 0.00 0.53 0.00 69 1011.6
20260503050527 5 0 0.0 0.0 0.00 0.53 0.00 67 1011.5
20260503050038 5 0 0.0 0.0 0.00 0.53 0.00 68 1011.6
20260503045529 5 0 0.0 0.0 0.00 0.53 0.00 65 1011.6
20260503045030 6 0 0.0 3.2 0.00 0.53 0.00 63 1011.5
20260503044541 6 0 0.0 3.2 0.00 0.53 0.00 60 1011.6
20260503044029 6 304 1.6 6.4 0.00 0.53 0.00 59 1011.6
20260503043529 6 0 1.6 6.4 0.00 0.53 0.00 60 1011.6
20260503043048 5 304 0.0 3.2 0.00 0.53 0.00 62 1011.6
20260503042529 5 260 0.0 1.6 0.00 0.53 0.00 64 1011.7
20260503042029 5 0 0.0 1.6 0.00 0.53 0.00 64 1011.9
20260503041537 5 0 0.0 1.6 0.00 0.53 0.00 65 1011.7
20260503041029 5 0 0.0 1.6 0.00 0.53 0.00 66 1011.6
20260503040532 6 0 0.0 1.6 0.00 0.53 0.00 66 1011.7
20260503040039 6 0 0.0 3.2 0.00 0.53 0.00 63 1011.8